"read_dt","SO2 (ppb)","flags","PMT voltage (V)","lamp voltage (V)","lamp intensity (Hz)","internal temp (C)","react chamber temp (C)","sample flow (l/min)","pres (mmHg)","SO2 bkg (ppb)","SO2 coefficient"
2017-03-15 00:00:00,1753E-3,5C000400,-0724,0839,12147,026.4,045.4,0.225,749.1,01.17,0.508
2017-03-15 00:01:00,1630E-3,5C000400,-0724,0839,11969,026.5,045.4,0.225,749.2,01.17,0.508
2017-03-15 00:02:00,1833E-3,5C000400,-0724,0839,12041,026.5,045.4,0.225,749.2,01.17,0.508
2017-03-15 00:03:00,1745E-3,5C000400,-0724,0839,11967,026.5,045.4,0.224,749.2,01.17,0.508
2017-03-15 00:04:00,1728E-3,5C000400,-0724,0840,12146,026.5,045.4,0.225,749.2,01.17,0.508
2017-03-15 00:05:00,1775E-3,5C000400,-0724,0839,12143,026.5,045.4,0.225,749.2,01.17,0.508
2017-03-15 00:06:00,1783E-3,5C000400,-0724,0839,12042,026.5,045.4,0.225,749.1,01.17,0.508
2017-03-15 00:07:00,1665E-3,5C000400,-0724,0839,11934,026.5,045.4,0.225,749.1,01.17,0.508
2017-03-15 00:08:00,1693E-3,5C000400,-0724,0839,12123,026.5,045.4,0.225,749.2,01.17,0.508
2017-03-15 00:09:00,1783E-3,5C000400,-0724,0839,12038,026.4,045.4,0.225,749.1,01.17,0.508
2017-03-15 00:10:00,1790E-3,5C000400,-0724,0839,12051,026.4,045.4,0.225,749.2,01.17,0.508
2017-03-15 00:11:00,1769E-3,5C000400,-0724,0839,11953,026.4,045.4,0.225,749.2,01.17,0.508
2017-03-15 00:12:00,1823E-3,5C000400,-0724,0839,11950,026.4,045.4,0.225,749.1,01.17,0.508
2017-03-15 00:13:00,1783E-3,5C000400,-0724,0839,12101,026.4,045.4,0.224,749.1,01.17,0.508
2017-03-15 00:14:00,1823E-3,5C000400,-0724,0839,12029,026.5,045.4,0.225,749.1,01.17,0.508
2017-03-15 00:15:00,1794E-3,5C000400,-0724,0840,12185,026.5,045.4,0.225,749.1,01.17,0.508
2017-03-15 00:16:00,1844E-3,5C000400,-0724,0839,12144,026.5,045.4,0.225,749.1,01.17,0.508
2017-03-15 00:17:00,1760E-3,5C000400,-0724,0839,11994,026.5,045.4,0.225,749.1,01.17,0.508
2017-03-15 00:18:00,1704E-3,5C000400,-0724,0839,11959,026.5,045.4,0.225,749.1,01.17,0.508
2017-03-15 00:19:00,1696E-3,5C000400,-0724,0839,12074,026.5,045.4,0.225,749.1,01.17,0.508
2017-03-15 00:20:00,1813E-3,5C000400,-0724,0839,12065,026.4,045.4,0.225,749.0,01.17,0.508
2017-03-15 00:21:00,1743E-3,5C000400,-0724,0839,12025,026.5,045.4,0.224,749.0,01.17,0.508
2017-03-15 00:22:00,1705E-3,5C000400,-0724,0839,12135,026.5,045.4,0.225,749.1,01.17,0.508
2017-03-15 00:23:00,1827E-3,5C000400,-0724,0839,12074,026.4,045.4,0.225,749.0,01.17,0.508
2017-03-15 00:24:00,1795E-3,5C000400,-0724,0840,12009,026.5,045.4,0.225,748.9,01.17,0.508
2017-03-15 00:25:00,1746E-3,5C000400,-0724,0839,12126,026.5,045.4,0.225,748.9,01.17,0.508
2017-03-15 00:26:00,1724E-3,5C000400,-0724,0839,12052,026.5,045.4,0.225,749.0,01.17,0.508
2017-03-15 00:27:00,1718E-3,5C000400,-0724,0839,12027,026.5,045.4,0.225,749.0,01.17,0.508
2017-03-15 00:28:00,1756E-3,5C000400,-0724,0839,12008,026.5,045.4,0.224,749.0,01.17,0.508
2017-03-15 00:29:00,1751E-3,5C000400,-0724,0839,11969,026.5,045.4,0.224,749.0,01.17,0.508
2017-03-15 00:30:00,1659E-3,5C000400,-0724,0840,12143,026.5,045.4,0.224,749.0,01.17,0.508
2017-03-15 00:31:00,1763E-3,5C000400,-0724,0839,11979,026.5,045.4,0.225,748.9,01.17,0.508
2017-03-15 00:32:00,1763E-3,5C000400,-0724,0839,11924,026.5,045.4,0.225,749.1,01.17,0.508
2017-03-15 00:33:00,1718E-3,5C000400,-0724,0839,12109,026.4,045.4,0.225,749.1,01.17,0.508
2017-03-15 00:34:00,1792E-3,5C000400,-0724,0839,11977,026.4,045.4,0.225,749.1,01.17,0.508
2017-03-15 00:35:00,1755E-3,5C000400,-0724,0839,12007,026.4,045.4,0.225,749.0,01.17,0.508
2017-03-15 00:36:00,1859E-3,5C000400,-0724,0839,11865,026.4,045.4,0.225,748.9,01.17,0.508
2017-03-15 00:37:00,1850E-3,5C000400,-0724,0839,12103,026.4,045.4,0.225,749.0,01.17,0.508
2017-03-15 00:38:00,1734E-3,5C000400,-0724,0839,11970,026.4,045.4,0.225,749.0,01.17,0.508
2017-03-15 00:39:00,1775E-3,5C000400,-0724,0839,12047,026.5,045.4,0.225,749.1,01.17,0.508
2017-03-15 00:40:00,1789E-3,5C000400,-0724,0839,12037,026.5,045.4,0.225,749.1,01.17,0.508
2017-03-15 00:41:00,1789E-3,5C000400,-0724,0839,12056,026.6,045.4,0.225,749.1,01.17,0.508
2017-03-15 00:42:00,1851E-3,5C000400,-0724,0839,11981,026.5,045.4,0.225,749.0,01.17,0.508
2017-03-15 00:43:00,1762E-3,5C000400,-0724,0839,11961,026.6,045.4,0.224,749.1,01.17,0.508
2017-03-15 00:44:00,1753E-3,5C000400,-0724,0839,11956,026.6,045.4,0.225,749.1,01.17,0.508
2017-03-15 00:45:00,1972E-3,5C000400,-0724,0839,12118,026.6,045.4,0.225,749.0,01.17,0.508
2017-03-15 00:46:00,1785E-3,5C000400,-0724,0839,11955,026.6,045.4,0.225,749.1,01.17,0.508
2017-03-15 00:47:00,1782E-3,5C000400,-0724,0838,11990,026.5,045.4,0.225,749.1,01.17,0.508
2017-03-15 00:48:00,1773E-3,5C000400,-0724,0839,11950,026.5,045.4,0.225,749.0,01.17,0.508
2017-03-15 00:49:00,1825E-3,5C000400,-0724,0839,11990,026.4,045.4,0.225,749.0,01.17,0.508
2017-03-15 00:50:00,1814E-3,5C000400,-0724,0839,12144,026.4,045.4,0.225,749.0,01.17,0.508
2017-03-15 00:51:00,1814E-3,5C000400,-0724,0839,12080,026.4,045.4,0.225,749.0,01.17,0.508
2017-03-15 00:52:00,1798E-3,5C000400,-0724,0840,11963,026.4,045.4,0.225,748.9,01.17,0.508
2017-03-15 00:53:00,1609E-3,5C000400,-0724,0839,12146,026.4,045.4,0.225,749.0,01.17,0.508
2017-03-15 00:54:00,1723E-3,5C000400,-0724,0839,12040,026.4,045.4,0.225,748.9,01.17,0.508
2017-03-15 00:55:00,1824E-3,5C000400,-0724,0839,12050,026.4,045.4,0.225,749.0,01.17,0.508
2017-03-15 00:56:00,1682E-3,5C000400,-0724,0839,12038,026.5,045.4,0.224,748.9,01.17,0.508
2017-03-15 00:57:00,1762E-3,5C000400,-0724,0839,12088,026.5,045.4,0.225,749.0,01.17,0.508
2017-03-15 00:58:00,1771E-3,5C000400,-0724,0840,12216,026.5,045.4,0.225,748.9,01.17,0.508
2017-03-15 00:59:00,1790E-3,5C000400,-0724,0838,11966,026.5,045.4,0.225,748.9,01.17,0.508
2017-03-15 01:00:00,1865E-3,5C000400,-0724,0839,12138,026.5,045.4,0.225,748.8,01.17,0.508
2017-03-15 01:01:00,1772E-3,5C000400,-0724,0840,12080,026.5,045.4,0.225,748.9,01.17,0.508
2017-03-15 01:02:00,1811E-3,5C000400,-0724,0839,11968,026.6,045.4,0.224,748.8,01.17,0.508
2017-03-15 01:03:00,1818E-3,5C000400,-0724,0839,11952,026.5,045.4,0.225,748.8,01.17,0.508
2017-03-15 01:04:00,1837E-3,5C000400,-0724,0839,11969,026.6,045.4,0.225,748.9,01.17,0.508
2017-03-15 01:05:00,1789E-3,5C000400,-0724,0839,12012,026.6,045.4,0.225,748.9,01.17,0.508
2017-03-15 01:06:00,1832E-3,5C000400,-0724,0839,12026,026.6,045.4,0.225,748.9,01.17,0.508
2017-03-15 01:07:00,1702E-3,5C000400,-0724,0838,11966,026.6,045.4,0.224,748.9,01.17,0.508
2017-03-15 01:08:00,1709E-3,5C000400,-0724,0839,11974,026.5,045.4,0.224,748.9,01.17,0.508
2017-03-15 01:09:00,1787E-3,5C000400,-0724,0839,12116,026.5,045.4,0.224,748.9,01.17,0.508
2017-03-15 01:10:00,1718E-3,5C000400,-0724,0839,12076,026.4,045.4,0.224,748.9,01.17,0.508
2017-03-15 01:11:00,1850E-3,5C000400,-0724,0839,12038,026.4,045.4,0.224,748.9,01.17,0.508
2017-03-15 01:12:00,1659E-3,5C000400,-0724,0839,11984,026.4,045.4,0.224,748.9,01.17,0.508
2017-03-15 01:13:00,1757E-3,5C000400,-0724,0839,12073,026.3,045.4,0.224,748.9,01.17,0.508
2017-03-15 01:14:00,1743E-3,5C000400,-0724,0838,12187,026.4,045.4,0.224,749.0,01.17,0.508
2017-03-15 01:15:00,1819E-3,5C000400,-0724,0839,12055,026.4,045.4,0.225,749.0,01.17,0.508
2017-03-15 01:16:00,1746E-3,5C000400,-0724,0839,12013,026.4,045.4,0.225,749.0,01.17,0.508
2017-03-15 01:17:00,1747E-3,5C000400,-0724,0839,12082,026.5,045.4,0.225,749.0,01.17,0.508
2017-03-15 01:18:00,1739E-3,5C000400,-0724,0839,12083,026.5,045.4,0.225,749.0,01.17,0.508
2017-03-15 01:19:00,1864E-3,5C000400,-0724,0839,12115,026.5,045.4,0.225,749.0,01.17,0.508
2017-03-15 01:20:00,1715E-3,5C000400,-0724,0838,12113,026.5,045.4,0.224,749.0,01.17,0.508
2017-03-15 01:21:00,1738E-3,5C000400,-0724,0839,12024,026.5,045.4,0.225,748.9,01.17,0.508
2017-03-15 01:22:00,1779E-3,5C000400,-0724,0839,12008,026.5,045.4,0.225,749.0,01.17,0.508
2017-03-15 01:23:00,1863E-3,5C000400,-0724,0839,12109,026.5,045.4,0.225,749.0,01.17,0.508
2017-03-15 01:24:00,1827E-3,5C000400,-0724,0839,12156,026.5,045.4,0.225,749.0,01.17,0.508
2017-03-15 01:25:00,1801E-3,5C000400,-0724,0840,12096,026.5,045.4,0.225,749.0,01.17,0.508
2017-03-15 01:26:00,1829E-3,5C000400,-0724,0839,12100,026.5,045.4,0.225,749.0,01.17,0.508
2017-03-15 01:27:00,1912E-3,5C000400,-0724,0840,11903,026.5,045.4,0.224,749.0,01.17,0.508
2017-03-15 01:28:00,1728E-3,5C000400,-0724,0839,12077,026.4,045.4,0.224,749.0,01.17,0.508
2017-03-15 01:29:00,1747E-3,5C000400,-0724,0839,12057,026.5,045.4,0.224,749.0,01.17,0.508
2017-03-15 01:30:00,1812E-3,5C000400,-0724,0838,12107,026.4,045.4,0.224,749.0,01.17,0.508
2017-03-15 01:31:00,1831E-3,5C000400,-0724,0840,12060,026.4,045.4,0.225,749.0,01.17,0.508
2017-03-15 01:32:00,1792E-3,5C000400,-0724,0840,12068,026.4,045.4,0.225,748.9,01.17,0.508
2017-03-15 01:33:00,1642E-3,5C000400,-0724,0838,12108,026.4,045.4,0.225,748.8,01.17,0.508
2017-03-15 01:34:00,1711E-3,5C000400,-0724,0839,12007,026.4,045.4,0.225,748.9,01.17,0.508
2017-03-15 01:35:00,1716E-3,5C000400,-0724,0839,12022,026.4,045.4,0.225,748.9,01.17,0.508
2017-03-15 01:36:00,1726E-3,5C000400,-0724,0839,12109,026.5,045.4,0.225,748.9,01.17,0.508
2017-03-15 01:37:00,1813E-3,5C000400,-0724,0839,12099,026.5,045.4,0.225,748.9,01.17,0.508
2017-03-15 01:38:00,1843E-3,5C000400,-0724,0839,12080,026.5,045.4,0.225,748.9,01.17,0.508
2017-03-15 01:39:00,1891E-3,5C000400,-0724,0839,11961,026.5,045.4,0.224,749.0,01.17,0.508
2017-03-15 01:40:00,1719E-3,5C000400,-0724,0839,12050,026.5,045.4,0.225,748.9,01.17,0.508
2017-03-15 01:41:00,1679E-3,5C000400,-0724,0839,12023,026.5,045.4,0.225,748.9,01.17,0.508
2017-03-15 01:42:00,1880E-3,5C000400,-0724,0839,12020,026.5,045.4,0.225,748.9,01.17,0.508
2017-03-15 01:43:00,1769E-3,5C000400,-0724,0839,12086,026.4,045.4,0.225,748.9,01.17,0.508
2017-03-15 01:44:00,1781E-3,5C000400,-0724,0840,12059,026.4,045.4,0.225,748.9,01.17,0.508
2017-03-15 01:45:00,1712E-3,5C000400,-0724,0839,12059,026.4,045.4,0.225,748.9,01.17,0.508
2017-03-15 01:46:00,1707E-3,5C000400,-0724,0839,11997,026.4,045.4,0.225,749.0,01.17,0.508
2017-03-15 01:47:00,1705E-3,5C000400,-0724,0838,11876,026.4,045.4,0.225,748.9,01.17,0.508
2017-03-15 01:48:00,1810E-3,5C000400,-0724,0839,12126,026.4,045.4,0.224,748.9,01.17,0.508
2017-03-15 01:49:00,2000E-3,5C000400,-0724,0839,12083,026.4,045.4,0.224,749.0,01.17,0.508
2017-03-15 01:50:00,1813E-3,5C000400,-0724,0839,12097,026.5,045.4,0.225,749.0,01.17,0.508
2017-03-15 01:51:00,1761E-3,5C000400,-0724,0839,11970,026.5,045.4,0.225,749.0,01.17,0.508
2017-03-15 01:52:00,1783E-3,5C000400,-0724,0840,12098,026.4,045.4,0.225,749.0,01.17,0.508
2017-03-15 01:53:00,1737E-3,5C000400,-0724,0839,12132,026.4,045.4,0.225,749.1,01.17,0.508
2017-03-15 01:54:00,1843E-3,5C000400,-0724,0839,12032,026.4,045.4,0.225,749.0,01.17,0.508
2017-03-15 01:55:00,1857E-3,5C000400,-0724,0839,12072,026.4,045.4,0.225,749.1,01.17,0.508
2017-03-15 01:56:00,1822E-3,5C000400,-0724,0839,11980,026.4,045.4,0.225,749.1,01.17,0.508
2017-03-15 01:57:00,1781E-3,5C000400,-0724,0839,12139,026.3,045.4,0.225,749.1,01.17,0.508
2017-03-15 01:58:00,1865E-3,5C000400,-0724,0839,12041,026.3,045.4,0.224,749.1,01.17,0.508
2017-03-15 01:59:00,1707E-3,5C000400,-0724,0840,11984,026.4,045.4,0.225,749.1,01.17,0.508
2017-03-15 02:00:00,1886E-3,5C000400,-0724,0839,12080,026.4,045.4,0.225,749.1,01.17,0.508
2017-03-15 02:01:00,1767E-3,5C000400,-0724,0839,12016,026.4,045.4,0.225,749.1,01.17,0.508
2017-03-15 02:02:00,1940E-3,5C000400,-0724,0840,12086,026.4,045.4,0.225,749.1,01.17,0.508
2017-03-15 02:03:00,1675E-3,5C000400,-0724,0840,11921,026.5,045.4,0.225,749.1,01.17,0.508
2017-03-15 02:04:00,1721E-3,5C000400,-0724,0839,12029,026.5,045.4,0.224,749.1,01.17,0.508
2017-03-15 02:05:00,1744E-3,5C000400,-0724,0839,12058,026.5,045.4,0.225,749.1,01.17,0.508
2017-03-15 02:06:00,1808E-3,5C000400,-0724,0839,12102,026.5,045.4,0.225,749.2,01.17,0.508
2017-03-15 02:07:00,1784E-3,5C000400,-0724,0839,12011,026.5,045.4,0.225,749.2,01.17,0.508
2017-03-15 02:08:00,1914E-3,5C000400,-0724,0839,12046,026.5,045.4,0.225,749.1,01.17,0.508
2017-03-15 02:09:00,1691E-3,5C000400,-0724,0839,11986,026.5,045.4,0.224,749.1,01.17,0.508
2017-03-15 02:10:00,1735E-3,5C000400,-0724,0839,12091,026.4,045.4,0.224,749.2,01.17,0.508
2017-03-15 02:11:00,1622E-3,5C000400,-0724,0839,12090,026.4,045.4,0.224,749.2,01.17,0.508
2017-03-15 02:12:00,1748E-3,5C000400,-0724,0839,12048,026.3,045.4,0.224,749.2,01.17,0.508
2017-03-15 02:13:00,1688E-3,5C000400,-0724,0839,11951,026.3,045.4,0.224,749.2,01.17,0.508
2017-03-15 02:14:00,1776E-3,5C000400,-0724,0839,11943,026.3,045.4,0.224,749.2,01.17,0.508
2017-03-15 02:15:00,1751E-3,5C000400,-0724,0839,12040,026.3,045.4,0.224,749.1,01.17,0.508
2017-03-15 02:16:00,1822E-3,5C000400,-0724,0839,12020,026.3,045.4,0.225,749.2,01.17,0.508
2017-03-15 02:17:00,1864E-3,5C000400,-0724,0839,12048,026.4,045.4,0.225,749.2,01.17,0.508
2017-03-15 02:18:00,1792E-3,5C000400,-0724,0839,12142,026.4,045.4,0.225,749.1,01.17,0.508
2017-03-15 02:19:00,1810E-3,5C000400,-0724,0839,12063,026.4,045.4,0.225,749.1,01.17,0.508
2017-03-15 02:20:00,1783E-3,5C000400,-0724,0839,12063,026.5,045.4,0.224,749.1,01.17,0.508
2017-03-15 02:21:00,1788E-3,5C000400,-0724,0839,11982,026.5,045.4,0.225,749.1,01.17,0.508
2017-03-15 02:22:00,1741E-3,5C000400,-0724,0839,12078,026.5,045.4,0.225,749.1,01.17,0.508
2017-03-15 02:23:00,1798E-3,5C000400,-0724,0839,11886,026.5,045.4,0.225,749.1,01.17,0.508
2017-03-15 02:24:00,1817E-3,5C000400,-0724,0840,12053,026.4,045.4,0.225,749.1,01.17,0.508
2017-03-15 02:25:00,1774E-3,5C000400,-0724,0840,12014,026.4,045.4,0.225,749.1,01.17,0.508
2017-03-15 02:26:00,1706E-3,5C000400,-0724,0839,11946,026.4,045.4,0.225,749.1,01.17,0.508
2017-03-15 02:27:00,1819E-3,5C000400,-0724,0839,12048,026.3,045.4,0.225,749.1,01.17,0.508
2017-03-15 02:28:00,1691E-3,5C000400,-0724,0839,12131,026.3,045.4,0.225,749.1,01.17,0.508
2017-03-15 02:29:00,1752E-3,5C000400,-0724,0839,11957,026.3,045.4,0.225,749.0,01.17,0.508
2017-03-15 02:30:00,1958E-3,5C000400,-0724,0839,12195,026.3,045.4,0.225,749.1,01.17,0.508
2017-03-15 02:31:00,1730E-3,5C000400,-0724,0839,12094,026.3,045.4,0.225,749.1,01.17,0.508
2017-03-15 02:32:00,1620E-3,5C000400,-0724,0839,12005,026.3,045.4,0.225,749.1,01.17,0.508
2017-03-15 02:33:00,1912E-3,5C000400,-0724,0839,12106,026.4,045.4,0.225,749.1,01.17,0.508
2017-03-15 02:34:00,1743E-3,5C000400,-0724,0839,12027,026.4,045.4,0.225,749.0,01.17,0.508
2017-03-15 02:35:00,1784E-3,5C000400,-0724,0839,12021,026.4,045.4,0.225,749.1,01.17,0.508
2017-03-15 02:36:00,1849E-3,5C000400,-0724,0839,12079,026.4,045.4,0.225,749.0,01.17,0.508
2017-03-15 02:37:00,1836E-3,5C000400,-0724,0839,11886,026.4,045.4,0.225,749.0,01.17,0.508
2017-03-15 02:38:00,1616E-3,5C000400,-0724,0839,11963,026.4,045.4,0.225,749.0,01.17,0.508
2017-03-15 02:39:00,1830E-3,5C000400,-0724,0840,12121,026.4,045.4,0.225,749.1,01.17,0.508
2017-03-15 02:40:00,1801E-3,5C000400,-0724,0839,12080,026.3,045.4,0.225,749.1,01.17,0.508
2017-03-15 02:41:00,1816E-3,5C000400,-0724,0839,12004,026.3,045.4,0.225,749.1,01.17,0.508
2017-03-15 02:42:00,1700E-3,5C000400,-0724,0839,11996,026.3,045.4,0.225,749.1,01.17,0.508
2017-03-15 02:43:00,1855E-3,5C000400,-0724,0839,12063,026.2,045.4,0.225,749.0,01.17,0.508
2017-03-15 02:44:00,1701E-3,5C000400,-0724,0839,12003,026.2,045.4,0.225,749.1,01.17,0.508
2017-03-15 02:45:00,1868E-3,5C000400,-0724,0839,12065,026.1,045.4,0.225,749.1,01.17,0.508
2017-03-15 02:46:00,1626E-3,5C000400,-0724,0839,12093,026.2,045.4,0.225,749.0,01.17,0.508
2017-03-15 02:47:00,1901E-3,5C000400,-0724,0839,12064,026.2,045.4,0.225,749.0,01.17,0.508
2017-03-15 02:48:00,1770E-3,5C000400,-0724,0838,12036,026.2,045.4,0.225,749.0,01.17,0.508
2017-03-15 02:49:00,1770E-3,5C000400,-0724,0840,12070,026.2,045.4,0.225,749.0,01.17,0.508
2017-03-15 02:50:00,1827E-3,5C000400,-0724,0839,11967,026.3,045.4,0.225,749.0,01.17,0.508
2017-03-15 02:51:00,1897E-3,5C000400,-0724,0839,12022,026.4,045.4,0.225,749.0,01.17,0.508
2017-03-15 02:52:00,1694E-3,5C000400,-0724,0839,11973,026.4,045.4,0.225,748.9,01.17,0.508
2017-03-15 02:53:00,1700E-3,5C000400,-0724,0839,12090,026.4,045.4,0.225,748.9,01.17,0.508
2017-03-15 02:54:00,1685E-3,5C000400,-0724,0838,12060,026.4,045.4,0.225,748.9,01.17,0.508
2017-03-15 02:55:00,1797E-3,5C000400,-0724,0839,12170,026.4,045.4,0.225,748.9,01.17,0.508
2017-03-15 02:56:00,1805E-3,5C000400,-0724,0839,12144,026.3,045.4,0.225,748.9,01.17,0.508
2017-03-15 02:57:00,1846E-3,5C000400,-0724,0839,11963,026.3,045.4,0.225,748.9,01.17,0.508
2017-03-15 02:58:00,1695E-3,5C000400,-0724,0839,11976,026.2,045.4,0.225,748.9,01.17,0.508
2017-03-15 02:59:00,1752E-3,5C000400,-0724,0839,12046,026.2,045.4,0.225,748.9,01.17,0.508
2017-03-15 03:00:00,1703E-3,5C000400,-0724,0838,12088,026.2,045.4,0.225,748.9,01.17,0.508
2017-03-15 03:01:00,1739E-3,5C000400,-0724,0839,12068,026.2,045.4,0.225,748.9,01.17,0.508
2017-03-15 03:02:00,1674E-3,5C000400,-0724,0839,12091,026.2,045.4,0.225,748.9,01.17,0.508
2017-03-15 03:03:00,1686E-3,5C000400,-0724,0839,11953,026.2,045.4,0.225,748.8,01.17,0.508
2017-03-15 03:04:00,1675E-3,5C000400,-0724,0839,12125,026.2,045.4,0.225,748.9,01.17,0.508
2017-03-15 03:05:00,1784E-3,5C000400,-0724,0839,11909,026.2,045.4,0.225,748.8,01.17,0.508
2017-03-15 03:06:00,1860E-3,5C000400,-0724,0839,12091,026.2,045.4,0.225,748.9,01.17,0.508
2017-03-15 03:07:00,1740E-3,5C000400,-0724,0839,12074,026.2,045.4,0.225,748.9,01.17,0.508
2017-03-15 03:08:00,1718E-3,5C000400,-0724,0838,12111,026.2,045.4,0.225,748.8,01.17,0.508
2017-03-15 03:09:00,1749E-3,5C000400,-0724,0838,11999,026.2,045.4,0.225,748.8,01.17,0.508
2017-03-15 03:10:00,1785E-3,5C000400,-0724,0839,12062,026.2,045.4,0.225,748.8,01.17,0.508
2017-03-15 03:11:00,1747E-3,5C000400,-0724,0839,12072,026.2,045.4,0.225,748.8,01.17,0.508
2017-03-15 03:12:00,1869E-3,5C000400,-0724,0838,12092,026.2,045.4,0.225,748.8,01.17,0.508
2017-03-15 03:13:00,1738E-3,5C000400,-0724,0839,11947,026.2,045.4,0.225,748.8,01.17,0.508
2017-03-15 03:14:00,1715E-3,5C000400,-0724,0838,12016,026.2,045.4,0.225,748.8,01.17,0.508
2017-03-15 03:15:00,1732E-3,5C000400,-0724,0839,12037,026.3,045.4,0.225,748.7,01.17,0.508
2017-03-15 03:16:00,1616E-3,5C000400,-0724,0839,11914,026.3,045.4,0.225,748.8,01.17,0.508
2017-03-15 03:17:00,1693E-3,5C000400,-0724,0839,12052,026.3,045.4,0.225,748.7,01.17,0.508
2017-03-15 03:18:00,1878E-3,5C000400,-0724,0839,11989,026.3,045.4,0.225,748.7,01.17,0.508
2017-03-15 03:19:00,1803E-3,5C000400,-0724,0839,12114,026.3,045.4,0.225,748.7,01.17,0.508
2017-03-15 03:20:00,1786E-3,5C000400,-0724,0839,12076,026.3,045.4,0.225,748.7,01.17,0.508
2017-03-15 03:21:00,1792E-3,5C000400,-0724,0838,11966,026.3,045.4,0.225,748.7,01.17,0.508
2017-03-15 03:22:00,1798E-3,5C000400,-0724,0839,12115,026.2,045.4,0.225,748.7,01.17,0.508
2017-03-15 03:23:00,1650E-3,5C000400,-0724,0838,12048,026.2,045.4,0.225,748.7,01.17,0.508
2017-03-15 03:24:00,1684E-3,5C000400,-0724,0838,12119,026.2,045.4,0.225,748.7,01.17,0.508
2017-03-15 03:25:00,1616E-3,5C000400,-0724,0839,12225,026.1,045.4,0.225,748.7,01.17,0.508
2017-03-15 03:26:00,1880E-3,5C000400,-0724,0839,12089,026.1,045.4,0.225,748.7,01.17,0.508
2017-03-15 03:27:00,1674E-3,5C000400,-0724,0839,12103,026.1,045.4,0.225,748.7,01.17,0.508
2017-03-15 03:28:00,1784E-3,5C000400,-0724,0839,12131,026.2,045.4,0.225,748.7,01.17,0.508
2017-03-15 03:29:00,1844E-3,5C000400,-0724,0839,12041,026.2,045.4,0.225,748.6,01.17,0.508
2017-03-15 03:30:00,1715E-3,5C000400,-0724,0839,12017,026.2,045.4,0.225,748.7,01.17,0.508
2017-03-15 03:31:00,1866E-3,5C000400,-0724,0839,12073,026.2,045.4,0.225,748.7,01.17,0.508
2017-03-15 03:32:00,1794E-3,5C000400,-0724,0839,12024,026.3,045.4,0.225,748.7,01.17,0.508
2017-03-15 03:33:00,1685E-3,5C000400,-0724,0839,11988,026.3,045.4,0.225,748.6,01.17,0.508
2017-03-15 03:34:00,1801E-3,5C000400,-0724,0840,12093,026.3,045.4,0.225,748.6,01.17,0.508
2017-03-15 03:35:00,1806E-3,5C000400,-0724,0839,12134,026.3,045.4,0.225,748.6,01.17,0.508
2017-03-15 03:36:00,1695E-3,5C000400,-0724,0839,12013,026.3,045.4,0.226,748.6,01.17,0.508
2017-03-15 03:37:00,1702E-3,5C000400,-0724,0840,12054,026.3,045.4,0.226,748.6,01.17,0.508
2017-03-15 03:38:00,1730E-3,5C000400,-0724,0839,12041,026.2,045.4,0.225,748.6,01.17,0.508
2017-03-15 03:39:00,1708E-3,5C000400,-0724,0839,12037,026.2,045.4,0.225,748.7,01.17,0.508
2017-03-15 03:40:00,1728E-3,5C000400,-0724,0839,12086,026.2,045.4,0.225,748.7,01.17,0.508
2017-03-15 03:41:00,1770E-3,5C000400,-0724,0839,11988,026.1,045.4,0.225,748.7,01.17,0.508
2017-03-15 03:42:00,1744E-3,5C000400,-0724,0839,11907,026.1,045.4,0.225,748.7,01.17,0.508
2017-03-15 03:43:00,1836E-3,5C000400,-0724,0838,12026,026.1,045.4,0.225,748.8,01.17,0.508
2017-03-15 03:44:00,1777E-3,5C000400,-0724,0839,12011,026.1,045.4,0.225,748.7,01.17,0.508
2017-03-15 03:45:00,1826E-3,5C000400,-0724,0839,12164,026.1,045.4,0.225,748.8,01.17,0.508
2017-03-15 03:46:00,1756E-3,5C000400,-0724,0838,12067,026.1,045.4,0.225,748.7,01.17,0.508
2017-03-15 03:47:00,1851E-3,5C000400,-0724,0839,12031,026.1,045.4,0.225,748.8,01.17,0.508
2017-03-15 03:48:00,1873E-3,5C000400,-0724,0839,11975,026.2,045.4,0.225,748.7,01.17,0.508
2017-03-15 03:49:00,1872E-3,5C000400,-0724,0838,12031,026.2,045.4,0.225,748.7,01.17,0.508
2017-03-15 03:50:00,1764E-3,5C000400,-0724,0838,12158,026.3,045.4,0.225,748.7,01.17,0.508
2017-03-15 03:51:00,1700E-3,5C000400,-0724,0839,12106,026.3,045.4,0.225,748.7,01.17,0.508
2017-03-15 03:52:00,1723E-3,5C000400,-0724,0839,12011,026.3,045.4,0.225,748.7,01.17,0.508
2017-03-15 03:53:00,1812E-3,5C000400,-0724,0839,12063,026.3,045.4,0.225,748.6,01.17,0.508
2017-03-15 03:54:00,1820E-3,5C000400,-0724,0839,12164,026.4,045.4,0.225,748.7,01.17,0.508
2017-03-15 03:55:00,1736E-3,5C000400,-0724,0839,12060,026.4,045.4,0.225,748.6,01.17,0.508
2017-03-15 03:56:00,1713E-3,5C000400,-0724,0839,11981,026.3,045.4,0.225,748.7,01.17,0.508
2017-03-15 03:57:00,1741E-3,5C000400,-0724,0839,12064,026.3,045.4,0.225,748.6,01.17,0.508
2017-03-15 03:58:00,1721E-3,5C000400,-0724,0839,12021,026.3,045.4,0.225,748.7,01.17,0.508
2017-03-15 03:59:00,1815E-3,5C000400,-0724,0839,12060,026.2,045.4,0.225,748.7,01.17,0.508
2017-03-15 04:00:00,1798E-3,5C000400,-0724,0840,12032,026.2,045.4,0.225,748.7,01.17,0.508
2017-03-15 04:01:00,1656E-3,5C000400,-0724,0838,12117,026.1,045.4,0.225,748.6,01.17,0.508
2017-03-15 04:02:00,1709E-3,5C000400,-0724,0838,11983,026.2,045.4,0.225,748.7,01.17,0.508
2017-03-15 04:03:00,1790E-3,5C000400,-0724,0839,12100,026.2,045.4,0.225,748.6,01.17,0.508
2017-03-15 04:04:00,1798E-3,5C000400,-0724,0839,12111,026.2,045.4,0.225,748.6,01.17,0.508
2017-03-15 04:05:00,1602E-3,5C000400,-0724,0839,12065,026.2,045.4,0.225,748.7,01.17,0.508
2017-03-15 04:06:00,1819E-3,5C000400,-0724,0839,12201,026.2,045.4,0.225,748.7,01.17,0.508
2017-03-15 04:07:00,1799E-3,5C000400,-0724,0839,12125,026.2,045.4,0.225,748.6,01.17,0.508
2017-03-15 04:08:00,1830E-3,5C000400,-0724,0839,12062,026.3,045.4,0.225,748.6,01.17,0.508
2017-03-15 04:09:00,1726E-3,5C000400,-0724,0839,12006,026.3,045.4,0.225,748.6,01.17,0.508
2017-03-15 04:10:00,1680E-3,5C000400,-0724,0839,12128,026.2,045.4,0.225,748.6,01.17,0.508
2017-03-15 04:11:00,1838E-3,5C000400,-0724,0839,11992,026.2,045.4,0.225,748.6,01.17,0.508
2017-03-15 04:12:00,1765E-3,5C000400,-0724,0838,12076,026.2,045.4,0.225,748.6,01.17,0.508
2017-03-15 04:13:00,1827E-3,5C000400,-0724,0838,12104,026.2,045.4,0.225,748.5,01.17,0.508
2017-03-15 04:14:00,1802E-3,5C000400,-0724,0839,11951,026.1,045.4,0.225,748.6,01.17,0.508
2017-03-15 04:15:00,1812E-3,5C000400,-0724,0839,11920,026.1,045.4,0.225,748.5,01.17,0.508
2017-03-15 04:16:00,1791E-3,5C000400,-0724,0839,12107,026.1,045.4,0.225,748.5,01.17,0.508
2017-03-15 04:17:00,1862E-3,5C000400,-0724,0839,12117,026.1,045.4,0.225,748.5,01.17,0.508
2017-03-15 04:18:00,1700E-3,5C000400,-0724,0840,11922,026.1,045.4,0.225,748.5,01.17,0.508
2017-03-15 04:19:00,1754E-3,5C000400,-0724,0839,11994,026.1,045.4,0.225,748.5,01.17,0.508
2017-03-15 04:20:00,1795E-3,5C000400,-0724,0838,11932,026.2,045.4,0.225,748.5,01.17,0.508